Wind_Speed
28 27 26 26 26 28 30 31 33 34 35 37 37 37 36 35 35 34 33 33 32 32 31 32 32 34 35 35 34 33 32 32 31 32 32 33 35 36 37 38 38 39 40
30 28 28 28 29 30 31 32 34 34 35 36 37 38 38 37 36 35 35 34 34 34 34 34 34 35 36 37 36 35 35 35 36 37 38 39 40 40 41 42 42 43 43
31 30 29 30 31 32 33 34 35 36 36 36 36 36 36 36 36 36 34 34 34 34 35 36 36 37 39 39 39 39 39 39 39 41 42 43 45 46 47 48 49 49 49
33 32 31 33 34 35 35 36 36 36 36 36 35 35 35 35 35 34 33 34 34 35 36 37 39 40 42 42 42 43 43 43 44 45 47 49 50 51 52 53 54 55 56
35 34 34 35 36 37 37 37 38 37 37 36 35 35 34 33 33 34 35 36 37 38 38 40 42 44 45 46 46 46 46 47 49 50 52 53 55 56 56 56 57 58 59
37 36 35 36 37 39 39 39 39 38 37 37 37 36 35 35 36 38 39 40 41 42 44 44 46 47 48 49 49 49 50 51 53 55 56 57 58 60 61 61 60 59 60
38 37 37 37 39 40 40 41 40 39 39 39 39 39 39 41 42 43 43 44 45 45 47 48 49 50 51 51 51 52 53 55 58 60 61 61 62 63 63 64 64 63 63
39 39 38 39 40 41 41 41 40 39 40 42 43 44 45 45 47 47 46 46 47 47 49 50 52 54 54 54 54 55 57 59 61 63 64 64 65 66 67 67 67 67 68
39 39 38 40 41 41 41 41 40 40 41 44 46 48 49 50 49 49 49 49 49 50 51 53 55 56 57 58 59 61 62 64 65 66 67 68 69 70 71 72 72 73 73
38 39 40 40 42 42 41 41 41 42 43 45 47 49 50 50 51 50 49 50 50 51 53 55 56 58 60 63 65 67 68 68 69 70 71 72 74 75 76 77 77 77 78
38 38 39 40 41 41 41 41 42 43 45 47 49 50 51 50 50 50 49 49 50 52 53 55 56 59 62 64 66 68 70 71 72 74 76 78 79 80 81 81 81 81 81
39 38 39 40 40 40 40 41 43 45 47 49 49 50 49 49 50 50 50 50 50 52 54 57 60 62 63 64 66 68 70 73 75 77 79 81 82 84 84 85 85 85 86
40 40 40 39 39 40 41 42 44 46 47 48 48 48 48 49 50 52 53 53 53 54 57 59 62 64 65 66 68 70 72 74 77 79 81 83 85 87 88 90 91 93 95
41 41 41 40 40 40 41 43 45 46 47 47 47 48 49 51 52 53 55 56 57 58 60 61 63 65 67 69 71 73 75 77 79 81 84 87 90 92 96 98 101 104 106
42 42 41 40 39 40 42 44 45 45 46 47 48 49 51 52 53 54 56 59 62 63 62 63 65 67 69 72 74 76 78 81 84 87 91 95 98 101 104 106 106 105 104
42 42 40 39 39 41 43 43 45 46 47 49 50 52 53 54 55 57 59 61 63 65 67 67 69 71 73 75 78 81 84 89 93 97 101 104 105 104 102 97 89 81 74
42 41 39 39 40 42 43 44 45 47 49 51 52 53 54 55 57 60 61 63 64 67 68 68 71 74 77 80 84 88 93 98 101 103 102 100 95 88 77 67 59 53 48
41 39 38 39 41 42 43 45 46 49 50 52 53 54 56 58 60 61 62 64 66 68 71 72 73 77 82 87 92 96 100 101 99 94 87 80 70 60 52 46 42 39 37
39 38 38 39 40 42 44 46 48 50 51 52 54 56 58 60 61 63 64 66 68 71 75 77 79 84 90 96 99 99 96 89 81 73 65 57 50 45 42 39 38 36 35
36 36 37 39 41 43 45 47 49 50 52 54 57 58 60 61 62 64 66 69 72 76 80 83 87 92 97 99 97 89 78 68 60 55 51 47 43 41 40 38 36 35 34
34 35 37 40 43 45 45 47 49 51 54 56 58 59 61 62 64 66 69 73 77 81 86 90 95 98 97 90 81 71 60 52 48 48 45 43 41 40 39 38 37 35 34
34 36 39 42 44 44 44 47 51 54 56 57 58 59 61 63 66 69 73 78 83 88 93 97 98 95 85 74 63 55 50 46 43 44 43 40 40 40 40 39 38 36 35
36 39 41 42 41 43 47 50 53 54 55 57 58 59 62 65 69 73 77 82 89 95 98 97 91 80 68 59 54 50 48 46 43 44 42 39 40 39 39 39 38 36 35
37 39 40 40 42 45 49 52 53 54 55 57 58 61 64 68 73 77 82 87 92 94 91 83 74 64 57 53 51 49 47 45 42 43 44 40 38 37 38 39 39 37 35
37 37 38 41 45 47 49 51 52 53 55 57 60 64 68 72 77 82 87 90 91 85 76 66 58 54 52 51 50 48 47 45 42 41 43 42 39 37 35 37 38 37 35
35 37 41 44 46 47 48 50 51 53 55 58 63 67 72 77 82 87 89 88 81 69 59 53 51 50 49 48 48 47 46 45 43 40 40 39 37 37 31 32 36 37 34
Wind_Direction
284 282 281 281 281 282 284 285 284 280 277 275 274 274 276 279 282 286 286 281 278 280 284 288 293 298 299 298 295 291 288 288 287 286 285 283 280 278 276 274 273 272 272
284 283 281 281 282 284 286 287 287 285 282 278 276 275 277 279 282 285 286 283 280 281 283 287 292 298 302 301 297 291 287 285 285 286 286 286 285 283 281 279 276 274 272
282 283 282 281 282 284 286 287 287 286 285 284 282 280 279 280 283 285 285 283 282 284 286 288 292 297 300 300 296 291 286 283 283 284 284 284 283 282 282 280 279 277 275
279 281 282 282 282 283 285 286 287 286 285 286 286 284 282 283 286 287 285 285 286 289 291 292 293 296 297 297 294 289 286 284 283 283 283 283 282 281 280 278 278 277 276
276 279 281 282 283 283 284 285 286 284 283 284 285 283 282 284 287 287 287 289 291 292 293 294 295 295 295 295 292 288 285 283 283 283 283 283 283 282 281 279 278 277 275
274 277 281 283 284 285 284 284 285 283 280 281 282 282 283 285 287 288 289 291 292 294 294 294 294 294 294 293 291 287 284 282 282 283 283 283 283 283 282 281 280 278 276
273 277 281 284 285 286 284 283 285 283 280 280 281 282 284 286 287 288 290 291 292 293 293 293 293 293 293 292 289 286 284 283 284 284 285 284 284 283 283 282 281 279 277
274 277 283 285 286 286 283 282 284 283 281 280 281 282 285 288 289 289 289 290 291 291 292 292 293 293 292 291 290 288 287 286 286 286 285 284 284 284 283 283 282 281 279
275 278 282 283 285 285 284 283 284 284 283 282 283 284 286 288 289 289 289 290 292 294 295 295 295 295 294 293 292 291 290 289 288 288 287 287 286 286 285 284 283 282 280
275 277 280 282 284 285 284 283 283 285 285 285 285 286 288 290 291 292 293 294 295 296 296 297 296 296 296 296 296 295 294 292 291 290 289 289 288 287 286 285 284 282 280
275 278 280 283 285 286 285 284 285 287 287 287 288 288 289 290 291 292 293 293 295 295 296 295 295 296 296 296 296 295 294 293 292 290 289 288 287 286 285 284 283 281 279
275 278 280 283 285 286 286 287 288 289 290 290 290 291 291 291 292 292 292 293 294 295 296 297 297 296 295 294 293 292 291 290 289 288 287 287 286 285 283 282 280 279 277
274 276 279 283 285 287 289 291 291 291 292 293 293 293 293 294 294 294 295 295 296 297 297 297 297 296 295 294 293 292 291 291 290 289 288 287 286 284 283 281 279 278 276
273 275 278 283 287 291 293 293 293 293 294 295 295 294 295 296 296 296 296 297 297 298 298 298 297 297 297 297 296 295 294 293 291 290 288 287 286 285 283 282 280 279 277
270 274 278 285 290 293 294 294 294 294 295 296 296 296 296 296 296 297 298 299 299 299 299 300 299 300 300 299 298 297 296 295 294 293 291 290 289 288 286 284 283 281 279
269 274 280 286 291 293 293 293 294 295 296 296 297 297 298 298 299 299 300 301 301 301 302 303 303 303 302 302 301 300 299 298 297 296 295 293 292 290 288 287 286 284 281
269 275 281 286 290 291 292 293 295 296 296 297 297 298 299 300 301 301 302 303 304 305 305 305 305 305 304 303 303 302 302 301 299 298 296 294 293 292 290 288 286 283 280
271 277 282 286 288 290 293 294 295 295 296 297 299 300 301 302 302 303 304 306 306 307 306 306 306 306 305 305 305 304 303 302 300 298 296 295 294 293 291 287 284 282 280
273 278 281 285 289 292 293 294 295 296 298 299 301 302 303 303 304 306 307 308 308 308 308 308 308 308 307 307 306 305 304 302 300 298 297 297 297 294 291 287 285 284 282
274 278 282 287 290 292 292 294 295 298 300 302 303 303 304 306 307 308 309 309 309 309 309 309 309 309 308 307 307 306 304 302 300 298 299 298 296 293 291 289 287 287 285
276 281 285 287 289 290 292 294 297 299 301 302 303 304 306 308 309 310 310 311 311 310 310 310 309 309 308 308 307 306 304 303 301 299 299 296 294 293 291 290 288 288 288
279 282 284 286 289 292 294 296 298 300 301 303 305 307 308 309 310 311 312 312 312 311 310 310 310 309 309 308 307 306 305 302 300 297 296 293 292 291 290 289 288 287 287
279 280 284 288 291 293 295 297 299 301 303 305 307 308 309 311 311 312 313 313 312 311 311 311 310 310 310 308 308 306 304 303 301 297 293 290 289 289 289 287 286 285 284
279 283 287 290 292 294 296 298 300 303 305 307 308 310 311 312 313 313 313 313 312 312 311 310 310 310 310 309 308 307 304 302 302 300 295 292 290 289 287 285 284 282 280
284 286 289 292 294 296 298 300 303 305 307 309 310 311 312 313 313 313 314 314 313 313 313 312 312 312 312 311 310 308 307 305 305 303 299 296 293 290 287 284 282 280 277
287 290 291 293 295 298 300 303 305 307 309 311 312 312 313 314 314 315 315 315 315 314 314 314 314 315 315 314 312 311 310 308 307 305 301 299 295 290 285 281 280 278 277
Height
5810 5811 5811 5810 5810 5810 5810 5810 5809 5809 5808 5808 5808 5807 5807 5806 5805 5805 5802 5801 5800 5799 5798 5797 5795 5794 5792 5790 5788 5786 5784 5782 5781 5780 5779 5778 5778 5778 5777 5777 5777 5777 5777
5805 5805 5805 5805 5804 5804 5804 5804 5803 5802 5801 5800 5800 5800 5799 5798 5798 5797 5795 5793 5792 5791 5790 5789 5787 5786 5784 5782 5780 5778 5777 5775 5773 5772 5771 5770 5769 5768 5768 5767 5767 5767 5767
5799 5799 5799 5799 5798 5797 5797 5796 5795 5794 5793 5792 5792 5792 5791 5790 5790 5789 5787 5786 5784 5783 5782 5780 5778 5777 5775 5773 5771 5769 5767 5766 5764 5762 5761 5760 5759 5758 5757 5756 5756 5755 5755
5793 5793 5793 5792 5791 5790 5789 5788 5787 5787 5786 5786 5785 5784 5783 5782 5781 5780 5779 5778 5776 5774 5773 5771 5769 5767 5765 5762 5760 5758 5756 5755 5753 5752 5750 5748 5747 5746 5746 5745 5744 5742 5742
5786 5786 5786 5785 5784 5783 5782 5781 5780 5780 5779 5779 5778 5777 5776 5775 5773 5772 5771 5769 5767 5765 5763 5761 5759 5756 5754 5752 5749 5747 5745 5743 5741 5740 5738 5736 5734 5732 5731 5731 5730 5728 5727
5779 5779 5779 5778 5777 5776 5775 5774 5772 5772 5771 5771 5770 5769 5768 5766 5765 5763 5761 5759 5757 5755 5752 5750 5748 5746 5743 5740 5737 5735 5733 5731 5728 5726 5724 5722 5719 5717 5715 5714 5713 5712 5711
5772 5772 5771 5770 5769 5768 5767 5766 5765 5763 5763 5762 5762 5761 5759 5757 5755 5754 5751 5748 5747 5744 5741 5739 5736 5733 5730 5727 5724 5722 5719 5716 5714 5711 5708 5705 5703 5700 5698 5696 5695 5694 5694
5764 5765 5765 5764 5762 5761 5760 5758 5757 5755 5754 5753 5753 5751 5750 5749 5746 5743 5740 5737 5734 5732 5729 5726 5723 5720 5717 5714 5711 5708 5705 5701 5697 5694 5691 5688 5685 5682 5680 5677 5676 5674 5673
5757 5757 5757 5756 5755 5753 5752 5750 5749 5747 5746 5744 5743 5741 5739 5737 5735 5733 5729 5725 5722 5719 5716 5713 5709 5705 5701 5698 5695 5691 5688 5684 5679 5675 5672 5668 5665 5661 5659 5656 5654 5653 5652
5749 5749 5749 5748 5747 5745 5744 5742 5740 5739 5738 5736 5733 5731 5728 5725 5723 5721 5718 5713 5710 5706 5702 5698 5694 5689 5684 5680 5676 5672 5667 5664 5659 5655 5651 5647 5643 5639 5636 5633 5630 5628 5627
5741 5741 5740 5740 5739 5737 5735 5733 5731 5729 5728 5726 5723 5720 5717 5714 5711 5709 5707 5703 5698 5694 5690 5685 5681 5676 5671 5665 5660 5654 5649 5644 5640 5635 5631 5626 5621 5617 5612 5608 5605 5603 5600
5733 5733 5733 5732 5730 5728 5726 5724 5722 5720 5718 5715 5712 5708 5705 5702 5699 5696 5694 5691 5687 5682 5677 5671 5666 5661 5656 5651 5645 5640 5634 5629 5623 5617 5611 5605 5599 5594 5589 5584 5580 5576 5572
5725 5725 5724 5723 5722 5720 5718 5715 5713 5710 5707 5704 5701 5697 5693 5690 5686 5682 5679 5676 5673 5669 5664 5657 5650 5644 5639 5633 5627 5621 5615 5609 5602 5595 5588 5581 5575 5568 5562 5557 5551 5546 5542
5717 5717 5716 5715 5714 5711 5709 5706 5703 5700 5697 5694 5690 5686 5682 5678 5674 5669 5665 5660 5658 5654 5648 5642 5634 5626 5620 5613 5607 5600 5594 5587 5580 5572 5564 5556 5548 5541 5533 5525 5518 5512 5506
5708 5708 5708 5707 5705 5703 5700 5697 5694 5691 5687 5684 5679 5675 5671 5666 5662 5656 5651 5645 5640 5636 5632 5625 5616 5609 5600 5593 5586 5578 5571 5562 5554 5545 5535 5526 5516 5507 5497 5488 5478 5469 5462
5699 5699 5699 5698 5696 5694 5691 5688 5685 5681 5677 5673 5669 5664 5659 5653 5648 5642 5636 5630 5622 5616 5611 5605 5596 5587 5578 5570 5562 5554 5544 5534 5523 5511 5500 5488 5478 5468 5457 5448 5438 5431 5425
5690 5691 5691 5689 5687 5684 5681 5678 5675 5671 5666 5662 5657 5652 5647 5641 5635 5628 5621 5614 5606 5598 5592 5587 5576 5566 5556 5547 5538 5528 5516 5504 5490 5476 5463 5451 5441 5432 5424 5418 5412 5408 5404
5682 5682 5682 5680 5678 5675 5672 5669 5665 5660 5656 5651 5645 5640 5634 5628 5621 5614 5606 5597 5589 5580 5572 5567 5558 5547 5535 5523 5513 5501 5487 5472 5457 5443 5431 5421 5414 5408 5403 5399 5396 5393 5391
5674 5674 5673 5671 5669 5666 5663 5658 5654 5649 5644 5639 5633 5627 5621 5614 5606 5598 5589 5580 5571 5562 5552 5544 5536 5524 5511 5496 5485 5472 5457 5442 5428 5416 5408 5401 5396 5392 5388 5385 5382 5381 5379
5666 5665 5664 5662 5660 5656 5652 5648 5643 5638 5632 5626 5620 5613 5606 5599 5591 5582 5573 5564 5554 5543 5532 5522 5513 5501 5486 5470 5455 5443 5433 5419 5408 5398 5393 5388 5384 5380 5376 5373 5371 5369 5367
5658 5657 5655 5653 5650 5646 5641 5637 5632 5627 5621 5614 5607 5600 5592 5584 5575 5566 5556 5546 5535 5524 5512 5501 5489 5476 5461 5446 5432 5420 5412 5404 5394 5385 5383 5376 5372 5369 5365 5361 5359 5357 5354
5650 5648 5646 5643 5640 5635 5631 5626 5621 5615 5608 5602 5594 5586 5578 5568 5559 5550 5539 5528 5515 5502 5490 5477 5463 5448 5435 5422 5413 5403 5396 5391 5385 5376 5371 5367 5361 5358 5354 5350 5347 5345 5342
5642 5640 5637 5634 5630 5626 5621 5615 5610 5603 5596 5589 5581 5572 5564 5554 5544 5535 5524 5511 5496 5479 5464 5451 5438 5424 5414 5405 5398 5391 5383 5377 5371 5363 5359 5357 5351 5347 5342 5338 5335 5333 5331
5633 5630 5627 5624 5620 5615 5610 5604 5598 5591 5583 5575 5567 5558 5549 5540 5529 5518 5507 5493 5477 5459 5444 5429 5418 5408 5398 5390 5383 5377 5370 5365 5359 5349 5343 5342 5339 5335 5331 5326 5322 5321 5319
5624 5621 5618 5614 5610 5605 5599 5592 5586 5578 5571 5562 5553 5544 5534 5524 5513 5501 5488 5473 5457 5439 5423 5410 5400 5393 5385 5376 5369 5363 5357 5351 5346 5339 5330 5327 5324 5322 5319 5314 5310 5308 5307
5615 5612 5608 5604 5599 5593 5587 5581 5574 5566 5559 5550 5540 5529 5518 5507 5494 5479 5466 5452 5437 5423 5410 5399 5389 5381 5373 5365 5357 5350 5343 5337 5332 5327 5320 5315 5311 5307 5308 5304 5298 5295 5295